TITAN 3C TRANSTAGE DEB, 59979

Orbit data source: Space-Track

TITAN 3C TRANSTAGE DEB, 59979 is space debris originally from a launch on Thu, 26 Sep 1968 UTC launched from the Air Force Eastern Test Range (AFETR). Debris objects in space refer to the collection of defunct objects orbiting the Earth. Examples of debris include non-operational satellites, rocket bodies, and fragments generated from explosions, collisions, or faulty payload assembly.

Loading next visibility...
TITAN 3C TRANSTAGE DEB details
Identifier
59979, 1968-081AM
Orbit
Active
Last TLE update3 days ago
Origin
Flag of USUSAF SSD (US)
ManufacturerUnknown
MissionSpacecraft
Bus & MotorUnknown
MassUnknown
Launch date (UTC)
1968-09-26 (56 years ago)
Launch vehicleUnknown
Launch site
Air Force Eastern Test Range (AFETR)
Object type
Payload
Rocket body
Debris
Shape & HBRUnknown
Radar Cross SectionRCS unknown

Expand to show TLE details & history

TLE from 3 days ago
0 TITAN 3C TRANSTAGE DEB
1 59979U 68081AM  24334.21346307 -.00000108  00000-0  00000-0 0  9994
2 59979   1.3358  60.8911 0045310 145.4017 217.2590  1.03317895 55240
Epoch: 2024-11-29T05:07Z
Definitive object data (Epoch: 2024-11-29T05:07:23.209Z)
Latitude0.07634°
Longitude-82.21921°
Altitude35,103.412 km
Speed3.094 km/s
True Right ascension04h 12m 50s
True Declination0° 04' 35"
Sunlit
Object was in daylight at TLE epoch
Visualization TLE readout
Latitude0.71915°
Longitude61.95129°
Altitude34,766.143 km
Speed3.12 km/s
Apparent Right ascension14h 14m 24s
Apparent Declination-5° 13' 32"
Sunlit
Object is in daylight
Visualization observer readout
Local Sidereal Time09:52:18
Azimuth110.26° ESE
Elevation14.949°
Doppler factor1
Orbital elements
Apogee altitude35,142.079 km
Perigee altitude34,767.52 km
Semi-major axis41,332.937 km
Eccentricity0.004531
Inclination1.3358°
RAAN60.8911°
Arg. of periapsis145.4017°
True anomaly216.94607°
Mean anomaly217.259°
Eccentric anomaly217.10239°
Mean motion0.25828 °/min
BSTARUnknown
Orbital period1393.81 mins
Loading maneuver chart data...

TITAN 3C TRANSTAGE DEB Visibility forecast

Observer location: undefined°, undefined

Span
Click to sort rows by Start time (UTC) header in descending order
Start Az.
Max El. time (UTC)
Max El. Az.
Max El.
End time (UTC)
End Az.
582 mins2024-12-02 12:05:28.112Z110.275° ESE2024-12-02 12:05:28.112Z110.275° ESE14.458°2024-12-02 21:47:28.112Z108.293° ESE
|